Weather History for Lumberton, NC

Change the Weather History Date:

Thursday, April 4, 2013

  Actual Average Record
Temperature  
Mean Temperature 45 °F 59 °F  
Max Temperature 48 °F 72 °F 84 °F (1999)
Min Temperature 42 °F 47 °F 37 °F (2004)
Degree Days  
Heating Degree Days 20 7  
Month to date heating degree days 48 29  
Since 1 July heating degree days 2658 2605  
Cooling Degree Days 0 1  
Month to date cooling degree days 0 4  
Year to date cooling degree days 5 17  
Moisture  
Dew Point 42 °F    
Average Humidity 83    
Maximum Humidity 100    
Minimum Humidity 65    
Precipitation  
Precipitation 1.03 in 0.10 in 1.03 in (2013)
Month to date precipitation 1.13 0.46  
Year to date precipitation 8.58 9.66  
Sea Level Pressure  
Sea Level Pressure 30.08 in    
Wind  
Wind Speed 9 mph (NE)    
Max Wind Speed 18 mph    
Max Gust Speed 26 mph    
Visibility 5 miles    
Events Rain    
T = Trace of Precipitation, MM = Missing Value Source: NWS Daily Summary

Daily Weather History Graph

Daily Weather History Graph

Search for Another Location

Airport:

Trip Planner

Search our weather history database for the weather conditions in past years. The results will help you decide how hot, cold, wet, or windy it might be!

Date:

Astronomy

Apr. 04, 2013 Rise Set
Actual Time 6:58 AM EDT 7:39 PM EDT
Civil Twilight 6:33 AM EDT 8:05 PM EDT
Nautical Twilight 6:03 AM EDT 8:35 PM EDT
Astronomical Twilight 5:32 AM EDT 9:06 PM EDT
Moon 3:10 AM EDT (4/4) 2:09 PM EDT (4/4)
Length of Visible Light 13h 31m
Length of Day
12h 41m
Waning Crescent, 34% of the Moon is Illuminated
Apr 4
Waning Crescent
Apr 10
New
Apr 18
First Quarter
Apr 25
Full
May 2
Last Quarter

Hourly Weather History & Observations

Time (EDT) Temp. Windchill Dew Point Humidity Pressure Visibility Wind Dir Wind Speed Gust Speed Precip Events Conditions
12:54 AM 46.9 °F - 42.1 °F 83% 30.26 in 10.0 mi Calm Calm - N/A   Clear
1:54 AM 46.9 °F - 39.9 °F 77% 30.26 in 10.0 mi Calm Calm - N/A   Mostly Cloudy
2:54 AM 46.9 °F - 37.9 °F 71% 30.25 in 10.0 mi Calm Calm - N/A   Partly Cloudy
3:54 AM 46.0 °F 43.9 °F 39.9 °F 79% 30.24 in 10.0 mi ENE 4.6 mph - N/A   Clear
4:54 AM 46.9 °F - 39.9 °F 77% 30.23 in 10.0 mi East 5.8 mph - N/A   Clear
5:54 AM 46.9 °F - 39.0 °F 74% 30.25 in 10.0 mi ENE 6.9 mph - N/A   Clear
6:54 AM 46.0 °F 41.4 °F 37.0 °F 71% 30.27 in 10.0 mi ENE 9.2 mph - N/A   Mostly Cloudy
7:54 AM 45.0 °F 39.3 °F 37.0 °F 74% 30.28 in 10.0 mi ENE 11.5 mph 20.7 mph N/A   Mostly Cloudy
8:54 AM 46.0 °F 41.4 °F 35.1 °F 66% 30.29 in 10.0 mi ENE 9.2 mph - N/A   Overcast
9:54 AM 46.0 °F 40.6 °F 35.1 °F 66% 30.27 in 10.0 mi ENE 11.5 mph 18.4 mph 0.00 in Rain Light Rain
10:54 AM 46.0 °F 40.6 °F 37.0 °F 71% 30.25 in 7.0 mi ENE 11.5 mph - 0.01 in Rain Light Rain
11:46 AM 44.6 °F 39.2 °F 39.2 °F 81% 30.22 in 6.0 mi ENE 10.4 mph - 0.05 in Rain Light Rain
11:54 AM 45.0 °F 39.3 °F 41.0 °F 86% 30.21 in 6.0 mi ENE 11.5 mph 17.3 mph 0.05 in Rain Light Rain
12:46 PM 44.6 °F 40.7 °F 42.8 °F 93% 30.20 in 2.0 mi ENE 6.9 mph - 0.06 in Rain Rain
12:54 PM 45.0 °F 41.8 °F 42.1 °F 90% 30.20 in 2.0 mi ENE 5.8 mph - 0.08 in Rain Rain
1:54 PM 44.1 °F 37.7 °F 42.1 °F 93% 30.14 in 2.5 mi ENE 12.7 mph 21.9 mph 0.15 in Rain Rain
2:10 PM 44.6 °F 39.2 °F 42.8 °F 93% 30.14 in 1.8 mi ENE 10.4 mph 18.4 mph 0.07 in Rain Rain
2:19 PM 44.6 °F 38.8 °F 42.8 °F 93% 30.13 in 2.0 mi ENE 11.5 mph 20.7 mph 0.09 in Rain Rain
2:26 PM 44.6 °F 38.4 °F 42.8 °F 93% 30.13 in 1.5 mi ENE 12.7 mph 19.6 mph 0.12 in Rain Heavy Rain
2:35 PM 44.6 °F 38.1 °F 42.8 °F 93% 30.12 in 1.8 mi ENE 13.8 mph 21.9 mph 0.14 in Rain Rain
2:50 PM 44.6 °F 37.8 °F 42.8 °F 93% 30.10 in 2.5 mi ENE 15.0 mph - 0.17 in Rain Light Rain
2:54 PM 44.1 °F 38.1 °F 43.0 °F 96% 30.10 in 3.0 mi ENE 11.5 mph 20.7 mph 0.17 in Rain Light Rain
3:01 PM 44.6 °F 38.4 °F 42.8 °F 93% 30.08 in 2.5 mi ENE 12.7 mph 19.6 mph 0.02 in Rain Rain
3:05 PM 44.6 °F 38.4 °F 42.8 °F 93% 30.07 in 3.0 mi ENE 12.7 mph 21.9 mph 0.02 in Rain Light Rain
3:13 PM 44.6 °F 38.4 °F 42.8 °F 93% 30.07 in 4.0 mi ENE 12.7 mph - 0.02 in Rain Light Rain
3:54 PM 46.0 °F 41.0 °F 44.1 °F 93% 30.06 in 3.0 mi ENE 10.4 mph - 0.03 in Rain Light Rain
4:23 PM 46.4 °F 41.1 °F 44.6 °F 93% 30.04 in 1.8 mi NE 11.5 mph 20.7 mph 0.06 in Rain Heavy Rain
4:46 PM 46.4 °F 41.9 °F 44.6 °F 93% 30.03 in 2.0 mi NE 9.2 mph 18.4 mph 0.12 in Rain Rain
4:54 PM 46.0 °F 40.2 °F 44.1 °F 93% 30.03 in 2.0 mi NE 12.7 mph 18.4 mph 0.13 in Rain Light Rain
5:16 PM 46.4 °F 40.7 °F 44.6 °F 93% 30.02 in 4.0 mi ENE 12.7 mph - 0.03 in Rain Light Rain
5:30 PM 46.4 °F 40.7 °F 44.6 °F 93% 30.00 in 4.0 mi ENE 12.7 mph - 0.04 in Rain Light Rain
5:54 PM 46.0 °F 40.2 °F 44.1 °F 93% 29.98 in 3.0 mi NE 12.7 mph 21.9 mph 0.06 in Rain Light Rain
6:01 PM 46.4 °F 41.1 °F 44.6 °F 93% 29.98 in 2.5 mi ENE 11.5 mph 21.9 mph 0.00 in Rain Light Rain
6:17 PM 46.4 °F 40.4 °F 44.6 °F 93% 29.96 in 5.0 mi ENE 13.8 mph 24.2 mph 0.01 in Rain Light Rain
6:40 PM 46.4 °F 41.5 °F 44.6 °F 93% 29.96 in 2.0 mi ENE 10.4 mph 23.0 mph 0.03 in Rain Rain
6:43 PM 46.4 °F 41.5 °F 44.6 °F 93% 29.97 in 1.5 mi ENE 10.4 mph 23.0 mph 0.06 in Rain Rain
6:50 PM 46.4 °F 41.1 °F 44.6 °F 93% 29.97 in 0.8 mi NE 11.5 mph - 0.16 in Rain Heavy Rain
6:54 PM 46.0 °F 40.6 °F 44.1 °F 93% 29.96 in 0.8 mi NE 11.5 mph 19.6 mph 0.21 in Rain Heavy Rain
7:03 PM 46.4 °F 40.7 °F 44.6 °F 93% 29.96 in 1.2 mi NE 12.7 mph 20.7 mph 0.04 in Rain Rain
7:19 PM 46.4 °F 40.1 °F 44.6 °F 93% 29.94 in 2.0 mi NE 15.0 mph 21.9 mph 0.09 in Rain Rain
7:30 PM 44.6 °F 38.4 °F 44.6 °F 100% 29.94 in 4.0 mi ENE 12.7 mph 20.7 mph 0.10 in Rain Light Rain
7:54 PM 45.0 °F 39.3 °F 44.1 °F 97% 29.92 in 2.5 mi NE 11.5 mph 19.6 mph 0.12 in Rain Light Rain
8:05 PM 44.6 °F 38.4 °F 42.8 °F 93% 29.91 in 3.0 mi NE 12.7 mph 20.7 mph 0.01 in Rain Light Rain
8:15 PM 44.6 °F 38.4 °F 42.8 °F 93% 29.90 in 3.0 mi NE 12.7 mph 20.7 mph 0.01 in Rain Light Rain
8:54 PM 44.1 °F 38.6 °F 43.0 °F 96% 29.90 in 10.0 mi NE 10.4 mph 18.4 mph 0.02 in   Overcast
9:28 PM 44.6 °F 38.8 °F 42.8 °F 93% 29.91 in 8.0 mi NNE 11.5 mph 17.3 mph 0.00 in   Overcast
9:54 PM 44.1 °F 39.0 °F 43.0 °F 96% 29.91 in 10.0 mi NNE 9.2 mph - 0.00 in   Overcast
10:54 PM 43.0 °F 36.8 °F 41.0 °F 93% 29.89 in 5.0 mi NNE 11.5 mph - N/A   Overcast
11:54 PM 42.1 °F 38.4 °F 41.0 °F 96% 29.87 in 5.0 mi North 5.8 mph - N/A   Overcast